Regional Weather Roundup
Issued by NWS

Home | Current Version | Previous Version | Graphics & Text | Print | Product List | Glossary On
Versions: 1 2 3 4 5 6 7 8 9 10 11 12 13 14 15 16 17 18 19 20 21 22 23 24 25 26 27 28 29 30 31 32 33 34 35 36 37 38 39 40 41 42 43 44 45 46 47 48 49 50
000
ASUS43 KLSX 291307
RWRMO

WEATHER SUMMARY FOR MISSOURI
NATIONAL WEATHER SERVICE SPRINGFIELD MO
800 AM CDT SAT AUG 29 2015

NOTE: "FAIR" INDICATES FEW OR NO CLOUDS BELOW 12,000 FEET WITH NO
       SIGNIFICANT WEATHER AND/OR OBSTRUCTIONS TO VISIBILITY.
       CURRENT SKY AND/OR WEATHER CONDITIONS ARE NOT AVAILABLE FOR
       CHILLICOTHE AND FARMINGTON.

MOZ001>031-035>038-043-044-053-054-291400-
...NORTHERN AND WESTERN MISSOURI...

CITY           SKY/WX    TMP DP  RH WIND       PRES   REMARKS
KANSAS CTY INT CLOUDY    68  65  90 N7        29.99R
KANSAS C DTWN  CLOUDY    70  67  90 NW6       29.98R
LEE`S SUMMIT   CLOUDY    70  68  93 NW5       29.99R
ST JOSEPH      CLOUDY    66  65  96 N6        30.00R
CHILLICOTHE      N/A     71  68  90 CALM      29.98R
KIRKSVILLE     CLOUDY    69  64  84 S3        29.99R

$$
MOZ066>068-077>081-088>096-101>105-291400-
...SOUTHWEST MISSOURI...

CITY           SKY/WX    TMP DP  RH WIND       PRES   REMARKS
SPRINGFIELD    CLOUDY    67  62  84 S10       30.02R
JOPLIN         SUNNY     70  63  78 S6        30.00R

$$
MOZ032>034-039>042-045>050-055>058-069>072-291400-
...CENTRAL MISSOURI...

CITY           SKY/WX    TMP DP  RH WIND       PRES   REMARKS
COLUMBIA       CLOUDY    68  64  87 S7        30.00S
JEFFERSON CITY PTSUNNY   70  63  78 SE5       30.00R
ROLLA          LGT RAIN  65  63  93 S12       30.02R FOG
SEDALIA        MOSUNNY   69  63  81 S7        30.00R
WHITEMAN AFB   CLOUDY    71  64  80 W6        29.98R
WARRENSBURG    CLOUDY    68  64  88 S5        29.98R
OSAGE BEACH    CLOUDY    72  61  68 S12       30.01S

$$
MOZ051-052-059>065-291400-
...EAST CENTRAL MISSOURI...

CITY           SKY/WX    TMP DP  RH WIND       PRES   REMARKS
ST LOUIS INTL  CLOUDY    73  63  70 SE8       30.03R
SPIRIT OF STL  CLOUDY    70  65  84 CALM      30.01R
ST CHARLES     CLOUDY    70  68  93 CALM      30.02R

$$
MOZ072>076-082>087-097>100-106>115-291400-
...SOUTH CENTRAL AND SOUTHEAST MISSOURI...

CITY           SKY/WX    TMP DP  RH WIND       PRES   REMARKS
CAPE GIRARDEAU CLOUDY    70  67  90 E3        30.06R
FARMINGTON     PTSUNNY   70  64  83 CALM      30.07S
POPLAR BLUFF   PTSUNNY   70  67  90 CALM      30.05R FOG
WEST PLAINS    CLOUDY    66  62  87 W6        30.09R

$$



USA.gov is the U.S. government's official web portal to all federal, state and local government web resources and services.